,,,PA_Meas_PMT16A,,PR_Meas_QMR101_102,,RH_Meas_QMH101,,SR_Meas_QMS101,,TA_Meas_QMH101,,GenWind,,GenWind,
date,time,status,PA,status,PR,status,RH,status,SR,status,TA,status,DirAvg,status,SpdAvg,
2009-02-02, 00:00:04,VALID,1002.8,VALID,0,VALID,85.207,VALID,0,VALID,26.2329,VALID,359,VALID,0.948828,
2009-02-02, 00:01:04,VALID,1002.75,VALID,0,VALID,85.3901,VALID,0.100563,VALID,26.2134,VALID,355,VALID,0.838281,
2009-02-02, 00:02:04,VALID,1002.69,VALID,0,VALID,85.4587,VALID,0.100563,VALID,26.1959,VALID,344,VALID,0.683203,
2009-02-02, 00:03:04,VALID,1002.61,VALID,0,VALID,85.5045,VALID,0,VALID,26.1355,VALID,349,VALID,0.611719,
2009-02-02, 00:04:04,VALID,1002.57,VALID,0,VALID,85.7791,VALID,0,VALID,26.0966,VALID,350,VALID,0.710156,
2009-02-02, 00:05:04,VALID,1002.51,VALID,0,VALID,85.9012,VALID,0.100563,VALID,26.0576,VALID,346,VALID,0.621875,
2009-02-02, 00:06:04,VALID,1002.49,VALID,0,VALID,86.0538,VALID,0.100563,VALID,26.0401,VALID,4,VALID,0.589844,
2009-02-02, 00:07:04,VALID,1002.48,VALID,0,VALID,86.214,VALID,0,VALID,25.9797,VALID,344,VALID,0.425391,
2009-02-02, 00:08:04,VALID,1002.47,VALID,0,VALID,86.42,VALID,0,VALID,25.9817,VALID,344,VALID,0,
2009-02-02, 00:09:04,VALID,1002.48,VALID,0,VALID,86.5344,VALID,0.100563,VALID,25.9622,VALID,299,VALID,0.322266,
2009-02-02, 00:10:04,VALID,1002.51,VALID,0,VALID,86.5496,VALID,0.100563,VALID,25.9622,VALID,341,VALID,0.608984,
2009-02-02, 00:11:04,VALID,1002.52,VALID,0,VALID,86.6793,VALID,0.100563,VALID,25.9622,VALID,345,VALID,0.183594,
2009-02-02, 00:12:04,VALID,1002.54,VALID,0,VALID,86.7327,VALID,0.100563,VALID,25.9213,VALID,345,VALID,0,
2009-02-02, 00:13:04,VALID,1002.55,VALID,0,VALID,86.9158,VALID,0.100563,VALID,25.9038,VALID,345,VALID,0,
2009-02-02, 00:14:04,VALID,1002.56,VALID,0,VALID,86.8395,VALID,0.100563,VALID,25.8823,VALID,345,VALID,0.285937,
2009-02-02, 00:15:04,VALID,1002.55,VALID,0,VALID,87.0837,VALID,0.100563,VALID,25.8843,VALID,345,VALID,0.116797,
2009-02-02, 00:16:04,VALID,1002.54,VALID,0,VALID,87.076,VALID,0.100563,VALID,25.8629,VALID,345,VALID,0.0515625,
2009-02-02, 00:17:04,VALID,1002.54,VALID,0,VALID,87.2668,VALID,0.100563,VALID,25.8648,VALID,345,VALID,0,
2009-02-02, 00:18:04,VALID,1002.52,VALID,0,VALID,87.7169,VALID,0.100563,VALID,25.8434,VALID,345,VALID,0.118359,
2009-02-02, 00:19:04,VALID,1002.5,VALID,0,VALID,87.8771,VALID,0,VALID,25.8239,VALID,345,VALID,0.244922,
2009-02-02, 00:20:04,VALID,1002.45,VALID,0,VALID,87.9228,VALID,0,VALID,25.8259,VALID,345,VALID,0.235547,
2009-02-02, 00:21:04,VALID,1002.43,VALID,0,VALID,87.8694,VALID,0.100563,VALID,25.7655,VALID,356,VALID,0.60625,
2009-02-02, 00:22:04,VALID,1002.4,VALID,0,VALID,88.1746,VALID,0.100563,VALID,25.6895,VALID,16,VALID,0.683594,
2009-02-02, 00:23:04,VALID,1002.37,VALID,0,VALID,88.495,VALID,0.100563,VALID,25.6116,VALID,16,VALID,0.535937,
2009-02-02, 00:24:04,VALID,1002.36,VALID,0,VALID,88.907,VALID,0.100563,VALID,25.5318,VALID,16,VALID,0.319531,
2009-02-02, 00:25:04,VALID,1002.34,VALID,0,VALID,88.9527,VALID,0,VALID,25.4948,VALID,16,VALID,0.0472656,
2009-02-02, 00:26:04,VALID,1002.29,VALID,0,VALID,89.0595,VALID,0,VALID,25.4753,VALID,16,VALID,0.124609,
2009-02-02, 00:27:04,VALID,1002.3,VALID,0,VALID,89.113,VALID,0,VALID,25.4558,VALID,16,VALID,0.414844,
2009-02-02, 00:28:04,VALID,1002.25,VALID,0,VALID,89.3037,VALID,0,VALID,25.4772,VALID,16,VALID,0.00078125,
2009-02-02, 00:29:04,VALID,1002.24,VALID,0,VALID,89.4715,VALID,0,VALID,25.4577,VALID,16,VALID,0,
2009-02-02, 00:30:04,VALID,1002.25,VALID,0,VALID,89.647,VALID,0,VALID,25.4383,VALID,16,VALID,0.0171875,
2009-02-02, 00:31:04,VALID,1002.22,VALID,0,VALID,89.7996,VALID,0,VALID,25.4383,VALID,14,VALID,0.491406,
2009-02-02, 00:32:04,VALID,1002.2,VALID,0,VALID,89.8835,VALID,0,VALID,25.4149,VALID,8,VALID,0.336719,
2009-02-02, 00:33:04,VALID,1002.19,VALID,0,VALID,89.8377,VALID,0,VALID,25.4577,VALID,8,VALID,0.298828,
2009-02-02, 00:34:04,VALID,1002.16,VALID,0,VALID,89.853,VALID,0,VALID,25.4558,VALID,8,VALID,0.208203,
2009-02-02, 00:35:04,VALID,1002.14,VALID,0,VALID,89.9216,VALID,0,VALID,25.5162,VALID,8,VALID,0.161719,
2009-02-02, 00:36:04,VALID,1002.11,VALID,0,VALID,89.6088,VALID,0,VALID,25.4948,VALID,8,VALID,0.19375,
2009-02-02, 00:37:04,VALID,1002.11,VALID,0,VALID,89.8453,VALID,0,VALID,25.5162,VALID,8,VALID,0.235938,
2009-02-02, 00:38:04,VALID,1002.16,VALID,0,VALID,89.8377,VALID,0,VALID,25.5551,VALID,8,VALID,0.464063,
2009-02-02, 00:39:04,VALID,1002.14,VALID,0,VALID,90.0666,VALID,0,VALID,25.5551,VALID,8,VALID,0.349609,
2009-02-02, 00:40:04,VALID,1002.17,VALID,0,VALID,90.1123,VALID,0,VALID,25.4928,VALID,8,VALID,0.433984,
2009-02-02, 00:41:04,VALID,1002.19,VALID,0,VALID,90.036,VALID,0,VALID,25.4948,VALID,8,VALID,0.509766,
2009-02-02, 00:42:04,VALID,1002.19,VALID,0,VALID,89.8835,VALID,0,VALID,25.4753,VALID,7,VALID,0.31875,
2009-02-02, 00:43:04,VALID,1002.18,VALID,0,VALID,90.0208,VALID,0,VALID,25.4772,VALID,7,VALID,0.00585938,
2009-02-02, 00:44:04,VALID,1002.2,VALID,0,VALID,89.853,VALID,0,VALID,25.4967,VALID,315,VALID,0.519141,
2009-02-02, 00:45:04,VALID,1002.19,VALID,0,VALID,89.8453,VALID,0,VALID,25.5337,VALID,293,VALID,0.622656,
2009-02-02, 00:46:04,VALID,1002.19,VALID,0,VALID,89.9216,VALID,0,VALID,25.5727,VALID,232,VALID,0.234375,
2009-02-02, 00:47:04,VALID,1002.13,VALID,0,VALID,89.6317,VALID,0,VALID,25.6311,VALID,230,VALID,0.434766,
2009-02-02, 00:48:04,VALID,1002.18,VALID,0,VALID,88.8765,VALID,0,VALID,25.633,VALID,267,VALID,1.1457,
2009-02-02, 00:49:04,VALID,1002.12,VALID,0,VALID,87.488,VALID,0,VALID,25.6311,VALID,235,VALID,1.28906,
2009-02-02, 00:50:04,VALID,1002.05,VALID,0,VALID,87.2286,VALID,0,VALID,25.7109,VALID,321,VALID,2.48164,
2009-02-02, 00:51:04,VALID,1002.13,VALID,0,VALID,86.5344,VALID,0,VALID,25.6876,VALID,296,VALID,3.06641,
2009-02-02, 00:52:04,VALID,1002.12,VALID,0,VALID,85.9699,VALID,0,VALID,25.7109,VALID,291,VALID,2.89102,
2009-02-02, 00:53:04,VALID,1002.13,VALID,0,VALID,85.9012,VALID,0,VALID,25.6506,VALID,280,VALID,1.96641,
2009-02-02, 00:54:04,VALID,1002.15,VALID,0,VALID,86.3132,VALID,0,VALID,25.6311,VALID,252,VALID,0.748047,
2009-02-02, 00:55:04,VALID,1002.09,VALID,0,VALID,86.0843,VALID,0,VALID,25.5532,VALID,275,VALID,2.37031,
2009-02-02, 00:56:04,VALID,1002.04,VALID,0,VALID,85.8478,VALID,0,VALID,25.4948,VALID,291,VALID,2.37852,
2009-02-02, 00:57:04,VALID,1002.06,VALID,0,VALID,86.1606,VALID,0,VALID,25.4558,VALID,279,VALID,1.99102,
2009-02-02, 00:58:04,VALID,1002.02,VALID,0,VALID,85.8859,VALID,0,VALID,25.3974,VALID,291,VALID,2.03828,
2009-02-02, 00:59:04,VALID,1001.99,VALID,0,VALID,85.3367,VALID,0,VALID,25.3409,VALID,282,VALID,2.61289,
2009-02-02, 01:00:04,VALID,1001.97,VALID,0,VALID,84.8637,VALID,0,VALID,25.2806,VALID,281,VALID,2.07266,
2009-02-02, 01:01:04,VALID,1001.93,VALID,0,VALID,84.7569,VALID,0,VALID,25.2611,VALID,307,VALID,1.82813,
2009-02-02, 01:02:04,VALID,1001.96,VALID,0,VALID,84.8942,VALID,0,VALID,25.2416,VALID,296,VALID,1.85195,
2009-02-02, 01:03:04,VALID,1001.97,VALID,0,VALID,84.8408,VALID,0,VALID,25.2435,VALID,287,VALID,2.05859,
2009-02-02, 01:04:04,VALID,1001.94,VALID,0,VALID,84.8942,VALID,0,VALID,25.1832,VALID,302,VALID,1.22617,
2009-02-02, 01:05:04,VALID,1001.94,VALID,0,VALID,84.734,VALID,0,VALID,25.1442,VALID,296,VALID,2.02578,
2009-02-02, 01:06:04,VALID,1001.91,VALID,0,VALID,84.467,VALID,0,VALID,25.1461,VALID,288,VALID,2.53164,
2009-02-02, 01:07:04,VALID,1001.89,VALID,0,VALID,84.5127,VALID,0,VALID,25.0663,VALID,300,VALID,1.44961,
2009-02-02, 01:08:04,VALID,1001.86,VALID,0,VALID,84.7111,VALID,0,VALID,25.0469,VALID,289,VALID,2.19766,
2009-02-02, 01:09:04,VALID,1001.84,VALID,0,VALID,84.8026,VALID,0,VALID,25.0079,VALID,297,VALID,1.85898,
2009-02-02, 01:10:04,VALID,1001.75,VALID,0,VALID,85.1993,VALID,0,VALID,24.969,VALID,274,VALID,0.705078,
2009-02-02, 01:11:04,VALID,1001.73,VALID,0,VALID,85.2833,VALID,0,VALID,24.969,VALID,274,VALID,0.760156,
2009-02-02, 01:12:04,VALID,1001.64,VALID,0,VALID,85.3138,VALID,0,VALID,24.93,VALID,306,VALID,0.973047,
2009-02-02, 01:13:04,VALID,1001.6,VALID,0,VALID,85.3367,VALID,0,VALID,24.8911,VALID,279,VALID,2.23086,
2009-02-02, 01:14:04,VALID,1001.58,VALID,0,VALID,85.5808,VALID,0,VALID,24.9106,VALID,306,VALID,0.800781,
2009-02-02, 01:15:04,VALID,1001.52,VALID,0,VALID,85.8707,VALID,0,VALID,24.893,VALID,262,VALID,0.660547,
2009-02-02, 01:16:04,VALID,1001.52,VALID,0,VALID,85.741,VALID,0,VALID,24.8697,VALID,287,VALID,0.961719,
2009-02-02, 01:17:04,VALID,1001.53,VALID,0,VALID,85.8631,VALID,0,VALID,24.8716,VALID,291,VALID,1.47734,
2009-02-02, 01:18:04,VALID,1001.56,VALID,0,VALID,86.0233,VALID,0,VALID,24.8716,VALID,311,VALID,0.660937,
2009-02-02, 01:19:04,VALID,1001.55,VALID,0,VALID,85.8707,VALID,0,VALID,24.8697,VALID,288,VALID,1.86328,
2009-02-02, 01:20:04,VALID,1001.57,VALID,0,VALID,86.1453,VALID,0,VALID,24.8697,VALID,348,VALID,0.858203,
2009-02-02, 01:21:04,VALID,1001.58,VALID,0,VALID,86.4123,VALID,0,VALID,24.9106,VALID,266,VALID,0.700781,
2009-02-02, 01:22:04,VALID,1001.48,VALID,0,VALID,86.2826,VALID,0,VALID,24.8716,VALID,278,VALID,1.98125,
2009-02-02, 01:23:04,VALID,1001.49,VALID,0,VALID,86.3132,VALID,0,VALID,24.8716,VALID,312,VALID,1.66797,
2009-02-02, 01:24:04,VALID,1001.46,VALID,0,VALID,86.3284,VALID,0,VALID,24.8716,VALID,305,VALID,1.38789,
2009-02-02, 01:25:04,VALID,1001.42,VALID,0,VALID,86.5115,VALID,0,VALID,24.8522,VALID,12,VALID,0.685938,
2009-02-02, 01:26:04,VALID,1001.42,VALID,0,VALID,86.7556,VALID,0,VALID,24.8522,VALID,240,VALID,0.471875,
2009-02-02, 01:27:04,VALID,1001.35,VALID,0,VALID,86.748,VALID,0,VALID,24.8113,VALID,2,VALID,0.84375,
2009-02-02, 01:28:04,VALID,1001.36,VALID,0,VALID,86.6641,VALID,0,VALID,24.8327,VALID,317,VALID,0.698828,
2009-02-02, 01:29:04,VALID,1001.37,VALID,0,VALID,86.5878,VALID,0,VALID,24.8132,VALID,302,VALID,1.49922,
2009-02-02, 01:30:04,VALID,1001.33,VALID,0,VALID,86.6259,VALID,0,VALID,24.7937,VALID,321,VALID,0.444531,
2009-02-02, 01:31:04,VALID,1001.32,VALID,0,VALID,86.2369,VALID,0,VALID,24.8132,VALID,310,VALID,2.30898,
2009-02-02, 01:32:04,VALID,1001.29,VALID,0,VALID,86.5802,VALID,0,VALID,24.7937,VALID,273,VALID,0.851953,
2009-02-02, 01:33:04,VALID,1001.24,VALID,0,VALID,85.8936,VALID,0,VALID,24.7743,VALID,296,VALID,1.51094,
2009-02-02, 01:34:04,VALID,1001.24,VALID,0,VALID,85.8631,VALID,0,VALID,24.7529,VALID,289,VALID,1.71836,
2009-02-02, 01:35:04,VALID,1001.23,VALID,0,VALID,86.0309,VALID,0,VALID,24.7724,VALID,291,VALID,1.37227,
2009-02-02, 01:36:04,VALID,1001.18,VALID,0,VALID,86.0614,VALID,0,VALID,24.7956,VALID,288,VALID,1.25469,
2009-02-02, 01:37:04,VALID,1001.13,VALID,0,VALID,86.2064,VALID,0,VALID,24.7548,VALID,284,VALID,1.11016,
2009-02-02, 01:38:04,VALID,1001.09,VALID,0,VALID,86.336,VALID,0,VALID,24.7548,VALID,295,VALID,0.704297,
2009-02-02, 01:39:04,VALID,1001.03,VALID,0,VALID,86.0919,VALID,0,VALID,24.7761,VALID,282,VALID,1.64883,
2009-02-02, 01:40:04,VALID,1001.05,VALID,0,VALID,86.1758,VALID,0,VALID,24.7548,VALID,298,VALID,1.26992,
2009-02-02, 01:41:04,VALID,1001.06,VALID,0,VALID,86.1148,VALID,0,VALID,24.7353,VALID,283,VALID,1.43711,
2009-02-02, 01:42:04,VALID,1001.06,VALID,0,VALID,85.1536,VALID,0,VALID,24.7353,VALID,290,VALID,3.27305,
2009-02-02, 01:43:04,VALID,1001.04,VALID,0,VALID,85.1841,VALID,0,VALID,24.7353,VALID,293,VALID,1.38711,
2009-02-02, 01:44:04,VALID,1001.01,VALID,0,VALID,84.7416,VALID,0,VALID,24.7548,VALID,276,VALID,1.27969,
2009-02-02, 01:45:04,VALID,1001.04,VALID,0,VALID,84.6882,VALID,0,VALID,24.7956,VALID,298,VALID,1.39414,
2009-02-02, 01:46:04,VALID,1001.03,VALID,0,VALID,84.528,VALID,0,VALID,24.7743,VALID,302,VALID,1.22187,
2009-02-02, 01:47:04,VALID,1001.04,VALID,0,VALID,84.6348,VALID,0,VALID,24.7743,VALID,290,VALID,1.05859,
2009-02-02, 01:48:04,VALID,1001.06,VALID,0,VALID,84.2915,VALID,0,VALID,24.7743,VALID,280,VALID,1.73047,
2009-02-02, 01:49:04,VALID,1001.04,VALID,0,VALID,84.3449,VALID,0,VALID,24.7743,VALID,292,VALID,1.14453,
2009-02-02, 01:50:04,VALID,1001.05,VALID,0,VALID,84.4212,VALID,0,VALID,24.7743,VALID,297,VALID,0.760938,
2009-02-02, 01:51:04,VALID,1001.04,VALID,0,VALID,84.3296,VALID,0,VALID,24.7743,VALID,283,VALID,1.90195,
2009-02-02, 01:52:04,VALID,1001.03,VALID,0,VALID,84.5738,VALID,0,VALID,24.7956,VALID,296,VALID,0.611719,
2009-02-02, 01:53:04,VALID,1001.04,VALID,0,VALID,84.5051,VALID,0,VALID,24.7743,VALID,286,VALID,1.16602,
2009-02-02, 01:54:04,VALID,1001.02,VALID,0,VALID,84.7492,VALID,0,VALID,24.7548,VALID,295,VALID,1.02773,
2009-02-02, 01:55:04,VALID,1000.95,VALID,0,VALID,84.7111,VALID,0,VALID,24.7353,VALID,278,VALID,1.06406,
2009-02-02, 01:56:04,VALID,1000.96,VALID,0,VALID,84.8942,VALID,0,VALID,24.7548,VALID,300,VALID,0.615234,
2009-02-02, 01:57:04,VALID,1000.92,VALID,0,VALID,84.8103,VALID,0,VALID,24.7335,VALID,303,VALID,0.998828,
2009-02-02, 01:58:04,VALID,1000.94,VALID,0,VALID,84.8255,VALID,0,VALID,24.7761,VALID,292,VALID,0.725781,
2009-02-02, 01:59:04,VALID,1000.95,VALID,0,VALID,84.8255,VALID,0,VALID,24.7353,VALID,289,VALID,0.790234,
2009-02-02, 02:00:04,VALID,1000.98,VALID,0,VALID,84.7645,VALID,0,VALID,24.7567,VALID,271,VALID,0.590625,
2009-02-02, 02:01:04,VALID,1001.03,VALID,0,VALID,85.0162,VALID,0,VALID,24.7372,VALID,348,VALID,0.320313,
2009-02-02, 02:02:04,VALID,1001.04,VALID,0,VALID,85.1993,VALID,0,VALID,24.7159,VALID,348,VALID,0.0636719,
2009-02-02, 02:03:04,VALID,1001.09,VALID,0,VALID,85.1154,VALID,0,VALID,24.6964,VALID,348,VALID,0.0726563,
2009-02-02, 02:04:04,VALID,1001.05,VALID,0,VALID,85.2299,VALID,0,VALID,24.6574,VALID,348,VALID,0,
2009-02-02, 02:05:04,VALID,1001.09,VALID,0,VALID,85.0086,VALID,0,VALID,24.638,VALID,38,VALID,0.252344,
2009-02-02, 02:06:04,VALID,1001.1,VALID,0,VALID,85.001,VALID,0,VALID,24.599,VALID,350,VALID,0.423438,
2009-02-02, 02:07:04,VALID,1001.12,VALID,0,VALID,85.0696,VALID,0,VALID,24.6185,VALID,344,VALID,0.358203,
2009-02-02, 02:08:04,VALID,1001.08,VALID,0,VALID,84.9552,VALID,0,VALID,24.6185,VALID,305,VALID,1.03203,
2009-02-02, 02:09:04,VALID,1001.07,VALID,0,VALID,84.8332,VALID,0,VALID,24.638,VALID,292,VALID,0.232422,
2009-02-02, 02:10:04,VALID,1001.03,VALID,0,VALID,84.6653,VALID,0,VALID,24.638,VALID,294,VALID,0.415625,
2009-02-02, 02:11:04,VALID,1001.02,VALID,0,VALID,85.3672,VALID,0,VALID,24.6574,VALID,317,VALID,0.359766,
2009-02-02, 02:12:04,VALID,1001.01,VALID,0,VALID,85.5274,VALID,0,VALID,24.6398,VALID,317,VALID,0.243359,
2009-02-02, 02:13:04,VALID,1001.04,VALID,0,VALID,85.1002,VALID,0,VALID,24.5601,VALID,323,VALID,0.539844,
2009-02-02, 02:14:04,VALID,1001.02,VALID,0,VALID,85.474,VALID,0,VALID,24.5406,VALID,358,VALID,0.162109,
2009-02-02, 02:15:04,VALID,1000.96,VALID,0,VALID,85.6342,VALID,0,VALID,24.5406,VALID,356,VALID,0.421484,
2009-02-02, 02:16:04,VALID,1000.95,VALID,0,VALID,85.207,VALID,0,VALID,24.5017,VALID,294,VALID,0.622266,
2009-02-02, 02:17:04,VALID,1000.94,VALID,0,VALID,85.2527,VALID,0,VALID,24.4998,VALID,327,VALID,0.918359,
2009-02-02, 02:18:04,VALID,1000.96,VALID,0,VALID,84.9781,VALID,0,VALID,24.5406,VALID,303,VALID,0.732031,
2009-02-02, 02:19:04,VALID,1000.94,VALID,0,VALID,85.3367,VALID,0,VALID,24.5796,VALID,286,VALID,0,
2009-02-02, 02:20:04,VALID,1000.9,VALID,0,VALID,85.2222,VALID,0,VALID,24.599,VALID,306,VALID,0.223438,
2009-02-02, 02:21:04,VALID,1000.89,VALID,0,VALID,85.062,VALID,0,VALID,24.599,VALID,324,VALID,0,
2009-02-02, 02:22:04,VALID,1000.89,VALID,0,VALID,84.7721,VALID,0,VALID,24.599,VALID,309,VALID,0.539063,
2009-02-02, 02:23:04,VALID,1000.86,VALID,0,VALID,84.9705,VALID,0,VALID,24.599,VALID,298,VALID,0.578906,
2009-02-02, 02:24:04,VALID,1000.9,VALID,0,VALID,84.94,VALID,0,VALID,24.5972,VALID,284,VALID,0.222656,
2009-02-02, 02:25:04,VALID,1000.87,VALID,0,VALID,84.7569,VALID,0,VALID,24.6185,VALID,340,VALID,0.666797,
2009-02-02, 02:26:04,VALID,1000.87,VALID,0,VALID,84.6501,VALID,0,VALID,24.5777,VALID,316,VALID,0.442187,
2009-02-02, 02:27:04,VALID,1000.86,VALID,0,VALID,84.7111,VALID,0,VALID,24.5777,VALID,300,VALID,0.317969,
2009-02-02, 02:28:04,VALID,1000.84,VALID,0,VALID,84.9018,VALID,0,VALID,24.6185,VALID,315,VALID,0.256641,
2009-02-02, 02:29:04,VALID,1000.86,VALID,0,VALID,84.9552,VALID,0,VALID,24.599,VALID,316,VALID,0.191797,
2009-02-02, 02:30:04,VALID,1000.84,VALID,0,VALID,85.1154,VALID,0,VALID,24.599,VALID,352,VALID,0.0300781,
2009-02-02, 02:31:04,VALID,1000.83,VALID,0,VALID,85.2222,VALID,0,VALID,24.5796,VALID,354,VALID,0.500781,
2009-02-02, 02:32:04,VALID,1000.87,VALID,0,VALID,85.4206,VALID,0,VALID,24.5601,VALID,354,VALID,0.213281,
2009-02-02, 02:33:04,VALID,1000.89,VALID,0,VALID,85.4892,VALID,0,VALID,24.5796,VALID,317,VALID,0.371484,
2009-02-02, 02:34:04,VALID,1000.99,VALID,0,VALID,85.5579,VALID,0,VALID,24.5406,VALID,274,VALID,1.06289,
2009-02-02, 02:35:04,VALID,1000.97,VALID,0,VALID,85.6723,VALID,0,VALID,24.599,VALID,285,VALID,0.877734,
2009-02-02, 02:36:04,VALID,1000.98,VALID,0,VALID,85.2375,VALID,0,VALID,24.5796,VALID,287,VALID,0.989062,
2009-02-02, 02:37:04,VALID,1001.01,VALID,0,VALID,85.2527,VALID,0,VALID,24.6185,VALID,298,VALID,1.3707,
2009-02-02, 02:38:04,VALID,1001,VALID,0,VALID,85.2985,VALID,0,VALID,24.638,VALID,312,VALID,1.53633,
2009-02-02, 02:39:04,VALID,1000.96,VALID,0,VALID,85.5274,VALID,0,VALID,24.6769,VALID,298,VALID,1.02969,
2009-02-02, 02:40:04,VALID,1000.94,VALID,0,VALID,85.596,VALID,0,VALID,24.7353,VALID,307,VALID,1.73242,
2009-02-02, 02:41:04,VALID,1000.9,VALID,0,VALID,86.008,VALID,0,VALID,24.7548,VALID,286,VALID,1.85391,
2009-02-02, 02:42:04,VALID,1000.83,VALID,0,VALID,86.5954,VALID,0.100563,VALID,24.8346,VALID,274,VALID,1.60508,
2009-02-02, 02:43:04,VALID,1000.79,VALID,0,VALID,87.961,VALID,0.100563,VALID,24.8716,VALID,294,VALID,2.72305,
2009-02-02, 02:44:04,VALID,1000.78,VALID,0,VALID,88.0983,VALID,0,VALID,24.9495,VALID,289,VALID,2.19141,
2009-02-02, 02:45:04,VALID,1000.75,VALID,0,VALID,88.2967,VALID,0,VALID,24.969,VALID,289,VALID,1.71797,
2009-02-02, 02:46:04,VALID,1000.75,VALID,0,VALID,88.7391,VALID,0,VALID,25.0079,VALID,292,VALID,2.18516,
2009-02-02, 02:47:04,VALID,1000.72,VALID,0,VALID,88.8536,VALID,0,VALID,25.0469,VALID,295,VALID,1.48398,
2009-02-02, 02:48:04,VALID,1000.72,VALID,0,VALID,88.907,VALID,0,VALID,25.0858,VALID,304,VALID,2.8293,
2009-02-02, 02:49:04,VALID,1000.68,VALID,0,VALID,88.8078,VALID,0,VALID,25.1248,VALID,294,VALID,2.22031,
2009-02-02, 02:50:04,VALID,1000.74,VALID,0,VALID,88.6934,VALID,0,VALID,25.1637,VALID,293,VALID,1.95352,
2009-02-02, 02:51:04,VALID,1000.71,VALID,0,VALID,88.6934,VALID,0,VALID,25.1637,VALID,311,VALID,1.3375,
2009-02-02, 02:52:04,VALID,1000.72,VALID,0,VALID,88.6705,VALID,0,VALID,25.1637,VALID,339,VALID,1.53828,
2009-02-02, 02:53:04,VALID,1000.71,VALID,0,VALID,88.5789,VALID,0,VALID,25.1637,VALID,285,VALID,1.90742,
2009-02-02, 02:54:04,VALID,1000.79,VALID,0,VALID,88.5408,VALID,0,VALID,25.1832,VALID,290,VALID,1.44492,
2009-02-02, 02:55:04,VALID,1000.8,VALID,0,VALID,88.2738,VALID,0,VALID,25.1618,VALID,301,VALID,2.80078,
2009-02-02, 02:56:04,VALID,1000.82,VALID,0,VALID,88.1441,VALID,0,VALID,25.1832,VALID,250,VALID,1.91836,
2009-02-02, 02:57:04,VALID,1000.81,VALID,0,VALID,87.5414,VALID,0,VALID,25.1832,VALID,302,VALID,3.35586,
2009-02-02, 02:58:04,VALID,1000.83,VALID,0,VALID,87.282,VALID,0,VALID,25.2027,VALID,296,VALID,2.43984,
2009-02-02, 02:59:04,VALID,1000.85,VALID,0,VALID,86.8701,VALID,0,VALID,25.2221,VALID,308,VALID,1.62773,
2009-02-02, 03:00:04,VALID,1000.87,VALID,0,VALID,86.6793,VALID,0,VALID,25.2221,VALID,304,VALID,1.45391,
2009-02-02, 03:01:04,VALID,1000.84,VALID,0,VALID,86.1606,VALID,0,VALID,25.2416,VALID,337,VALID,2.44258,
2009-02-02, 03:02:04,VALID,1000.87,VALID,0,VALID,85.7868,VALID,0,VALID,25.2221,VALID,301,VALID,2.11797,
2009-02-02, 03:03:04,VALID,1000.89,VALID,0,VALID,85.3748,VALID,0,VALID,25.2221,VALID,301,VALID,2.65156,
2009-02-02, 03:04:04,VALID,1000.97,VALID,0,VALID,85.3824,VALID,0,VALID,25.2416,VALID,301,VALID,1.88359,
2009-02-02, 03:05:04,VALID,1000.94,VALID,0,VALID,85.0468,VALID,0,VALID,25.2416,VALID,254,VALID,1.38398,
2009-02-02, 03:06:04,VALID,1000.99,VALID,0,VALID,84.9476,VALID,0,VALID,25.2221,VALID,287,VALID,1.44297,
2009-02-02, 03:07:04,VALID,1000.95,VALID,0,VALID,84.7416,VALID,0,VALID,25.2221,VALID,278,VALID,1.91367,
2009-02-02, 03:08:04,VALID,1000.99,VALID,0,VALID,84.9171,VALID,0,VALID,25.2221,VALID,249,VALID,0.6375,
2009-02-02, 03:09:04,VALID,1000.95,VALID,0,VALID,84.6882,VALID,0,VALID,25.2027,VALID,294,VALID,2.09453,
2009-02-02, 03:10:04,VALID,1000.98,VALID,0,VALID,84.734,VALID,0,VALID,25.1832,VALID,286,VALID,1.88711,
2009-02-02, 03:11:04,VALID,1001.01,VALID,0,VALID,84.9476,VALID,0,VALID,25.1637,VALID,316,VALID,0.275,
2009-02-02, 03:12:04,VALID,1001.01,VALID,0,VALID,84.9705,VALID,0,VALID,25.1637,VALID,352,VALID,1.02813,
2009-02-02, 03:13:04,VALID,1001.02,VALID,0,VALID,84.8637,VALID,0,VALID,25.1248,VALID,137,VALID,0.608984,
2009-02-02, 03:14:04,VALID,1001,VALID,0,VALID,84.6958,VALID,0,VALID,25.1053,VALID,271,VALID,1.58828,
2009-02-02, 03:15:04,VALID,1001.01,VALID,0,VALID,84.6806,VALID,0,VALID,25.1053,VALID,294,VALID,1.84219,
2009-02-02, 03:16:04,VALID,1000.95,VALID,0,VALID,84.2152,VALID,0,VALID,25.1053,VALID,300,VALID,1.99375,
2009-02-02, 03:17:04,VALID,1000.97,VALID,0,VALID,83.7041,VALID,0,VALID,25.1053,VALID,294,VALID,2.09141,
2009-02-02, 03:18:04,VALID,1000.93,VALID,0,VALID,83.7651,VALID,0,VALID,25.1442,VALID,299,VALID,1.30859,
2009-02-02, 03:19:04,VALID,1000.87,VALID,0,VALID,83.6964,VALID,0,VALID,25.1637,VALID,293,VALID,1.33789,
2009-02-02, 03:20:04,VALID,1000.85,VALID,0,VALID,83.4905,VALID,0,VALID,25.1423,VALID,293,VALID,2.02187,
2009-02-02, 03:21:04,VALID,1000.88,VALID,0,VALID,83.5439,VALID,0,VALID,25.1442,VALID,304,VALID,1.76016,
2009-02-02, 03:22:04,VALID,1000.87,VALID,0,VALID,83.3379,VALID,0.100563,VALID,25.1248,VALID,307,VALID,1.98125,
2009-02-02, 03:23:04,VALID,1000.91,VALID,0,VALID,83.4523,VALID,0,VALID,25.1248,VALID,299,VALID,1.6418,
2009-02-02, 03:24:04,VALID,1000.9,VALID,0,VALID,83.4371,VALID,0,VALID,25.1053,VALID,295,VALID,2.49648,
2009-02-02, 03:25:04,VALID,1000.85,VALID,0,VALID,83.4065,VALID,0,VALID,25.0858,VALID,283,VALID,3.43984,
2009-02-02, 03:26:04,VALID,1000.83,VALID,0,VALID,83.4371,VALID,0,VALID,25.1053,VALID,293,VALID,1.95234,
2009-02-02, 03:27:04,VALID,1000.8,VALID,0,VALID,83.46,VALID,0,VALID,25.1053,VALID,7,VALID,1.56836,
2009-02-02, 03:28:04,VALID,1000.77,VALID,0,VALID,83.1701,VALID,0,VALID,25.1053,VALID,323,VALID,1.34297,
2009-02-02, 03:29:04,VALID,1000.83,VALID,0,VALID,83.3226,VALID,0,VALID,25.0858,VALID,271,VALID,1.61211,
2009-02-02, 03:30:04,VALID,1000.79,VALID,0,VALID,82.9717,VALID,0,VALID,25.0858,VALID,291,VALID,2.31602,
2009-02-02, 03:31:04,VALID,1000.75,VALID,0,VALID,82.4682,VALID,0.100563,VALID,25.0839,VALID,291,VALID,3.24453,
2009-02-02, 03:32:04,VALID,1000.78,VALID,0,VALID,82.4606,VALID,0,VALID,25.1053,VALID,283,VALID,1.51523,
2009-02-02, 03:33:04,VALID,1000.75,VALID,0,VALID,82.3385,VALID,0,VALID,25.1053,VALID,271,VALID,1.87852,
2009-02-02, 03:34:04,VALID,1000.73,VALID,0,VALID,82.6742,VALID,0,VALID,25.0839,VALID,238,VALID,0.892187,
2009-02-02, 03:35:04,VALID,1000.74,VALID,0,VALID,82.4987,VALID,0,VALID,25.1072,VALID,282,VALID,1.79375,
2009-02-02, 03:36:04,VALID,1000.72,VALID,0,VALID,82.041,VALID,0,VALID,25.0663,VALID,246,VALID,2.16328,
2009-02-02, 03:37:04,VALID,1000.71,VALID,0,VALID,82.0639,VALID,0,VALID,25.0663,VALID,272,VALID,1.87188,
2009-02-02, 03:38:04,VALID,1000.69,VALID,0,VALID,82.0257,VALID,0,VALID,25.0663,VALID,287,VALID,2.84102,
2009-02-02, 03:39:04,VALID,1000.69,VALID,0,VALID,82.0333,VALID,0,VALID,25.0877,VALID,293,VALID,2.37148,
2009-02-02, 03:40:04,VALID,1000.71,VALID,0,VALID,82.0715,VALID,0,VALID,25.0274,VALID,294,VALID,1.97617,
2009-02-02, 03:41:04,VALID,1000.7,VALID,0,VALID,82.2088,VALID,0,VALID,25.0274,VALID,277,VALID,0.870313,
2009-02-02, 03:42:04,VALID,1000.64,VALID,0,VALID,82.0333,VALID,0,VALID,25.0079,VALID,297,VALID,0.976563,
2009-02-02, 03:43:04,VALID,1000.68,VALID,0,VALID,82.0333,VALID,0,VALID,24.9885,VALID,272,VALID,1.3625,
2009-02-02, 03:44:04,VALID,1000.7,VALID,0,VALID,82.0639,VALID,0,VALID,24.9904,VALID,317,VALID,1.41758,